Location: ???????
(55.3754°N, 39.3545°E)
Time: 07:09:09
(UTC+00:00)

COBE Rocket - Pass Details

Date: 14 April 2026
Orbit: 676 x 771 km, 97.1° (Epoch: 13 May)

Event Time Altitude Azimuth Distance (km) Brightness Sun altitude
Rises 17:06:57 0° 12° (NNE) 3,152 7.4 -6.2°
Reaches altitude 10° 17:09:13 10° 10° (N) 2,241 6.7 -6.5°
Maximum altitude 17:14:08 69° 288° (WNW) 798 4.4 -7.1°
Drops below altitude 10° 17:19:08 10° 206° (SSW) 2,281 6.4 -7.8°
Sets 17:21:27 0° 204° (SSW) 3,213 7.2 -8.0°
